Tracking 19476 objects as of 17-Jan-2019
HD Live streaming from Space Station
objects crossing your sky now

INTELSAT 505

Track INTELSAT 505 now!
INTELSAT 505 is classified as:


NORAD ID: 13595
Int'l Code: 1982-097A
Perigee: 36,208.1 km
Apogee: 36,442.3 km
Inclination: 15.1 °
Period: 1,463.3 minutes
Semi major axis: 42696 km
RCS: 0.1428 m2 (medium)
Launch date: September 28, 1982
Source: International Telecommunications Satellite Organization (ITSO)
Launch site: AIR FORCE EASTERN TEST RANGE (AFETR)
aabbcc
Your satellite tracking list
Your tracking list is empty




NASA's NSSDC Master Catalog

Two Line Element Set (TLE):
1 13595U 82097A   19016.88991983 -.00000051 +00000-0 +00000-0 0  9998
2 13595 015.1072 352.7303 0027434 333.0925 028.8885 00.98405481101380
Source of the keplerian elements: AFSPC